Flag for Russia Weather past 2 weeks in Yakutsk, Russia

Now
28 °F

Sunny.


Feels Like: 22 °F
Forecast: 17 / 38 °F
Wind: 6 mph from East

Location: Jakutsk


UV Index: 0 (Low)

Visibility: 10 mi


Pressure: 30.09 "Hg

Humidity: 47%

Dew point: 10 °F

Location of YakutskLocation

Historic Weather in Yakutsk

°F

Yakutsk temperature yesterday

Maximum temperature yesterday: 45 °F (at 4:30 PM)
Minimum temperature yesterday: 28 °F (at 11:00 PM)
Average temperature yesterday: 37 °F

Past Weeks' High & Low Weather Summary

 TemperatureHumidityPressure
High55 °F (Apr 12, 4:00 PM)93% (Apr 11, 7:00 AM)30.33 "Hg (Apr 11, 7:00 AM)
Low0 °F (Apr 5, 6:00 AM)19% (Apr 18, 4:30 PM)29.50 "Hg (Apr 12, 9:30 PM)
Average30 °F58%29.94 "Hg
* Reported Apr 4 9:00 AM — Apr 19 9:30 AM, Yakutsk, Weather by CustomWeather, © 2014

Note: Actual official high and low records may vary slightly from our data, if they occured in-between our weather recording intervals... More about our weather records

Advertising

Historic Weather Conditions — Data for Previous 24 hours

 ConditionsComfort  
Time TempWeatherWind HumidityBarometerVisibility
9:30 AM
Apr 19
28 °FSunny.3 mph51%30.09 "Hg10 mi
9:00 AM27 °FSunny.3 mph59%30.09 "Hg10 mi
8:30 AM28 °FSunny.1 mph43%30.09 "Hg10 mi
8:00 AM27 °FSunny.1 mph50%30.09 "Hg10 mi
7:30 AM23 °FSunny.3 mph63%30.09 "Hg10 mi
7:00 AM21 °FSunny.6 mph68%30.09 "Hg10 mi
6:30 AM19 °FClear.6 mph73%30.09 "Hg10 mi
6:00 AM19 °FClear.3 mph73%30.09 "Hg10 mi
5:30 AM19 °FClear.3 mph79%30.09 "Hg10 mi
5:00 AM19 °FClear.3 mph73%30.12 "Hg10 mi
4:30 AM21 °FClear.3 mph74%30.12 "Hg10 mi
4:00 AM21 °FClear.3 mph74%30.12 "Hg10 mi
3:30 AM21 °FClear.3 mph80%30.12 "Hg10 mi
3:00 AM21 °FClear.1 mph80%30.12 "Hg10 mi
2:30 AM23 °FClear.No wind74%30.12 "Hg10 mi
2:00 AM25 °FClear.1 mph63%30.12 "Hg10 mi
1:30 AM25 °FClear.1 mph63%30.12 "Hg10 mi
1:00 AM27 °FClear.No wind59%30.12 "Hg10 mi
12:30 AM27 °FClear.3 mph59%30.12 "Hg10 mi
12:00 AM28 °FClear.6 mph55%30.12 "Hg10 mi
11:30 PM
Apr 18
28 °FClear.6 mph55%30.12 "Hg10 mi
11:00 PM28 °FClear.3 mph55%30.12 "Hg10 mi
10:30 PM30 °FClear.6 mph51%30.12 "Hg10 mi
10:00 PM30 °FClear.3 mph51%30.12 "Hg10 mi
9:30 PM34 °FSunny.3 mph38%30.12 "Hg10 mi
9:00 PM34 °FSunny.3 mph41%30.12 "Hg10 mi
8:30 PM37 °FSunny.3 mph33%30.12 "Hg10 mi
8:00 PM37 °FSunny.3 mph30%30.12 "Hg10 mi
7:30 PM39 °FSunny.6 mph26%30.12 "Hg10 mi
7:00 PM41 °FSunny.6 mph26%30.12 "Hg10 mi
6:30 PM41 °FSunny.8 mph24%30.12 "Hg10 mi
6:00 PM41 °FSunny.8 mph24%30.12 "Hg10 mi
5:30 PM43 °FSunny.8 mph21%30.12 "Hg10 mi
5:00 PM43 °FSunny.8 mph22%30.12 "Hg10 mi
4:30 PM45 °FSunny.8 mph19%30.12 "Hg10 mi
4:00 PM43 °FPassing clouds.6 mph22%30.12 "HgN/A
3:30 PM43 °FPassing clouds.8 mph24%30.12 "HgN/A
3:00 PM43 °FSunny.8 mph24%30.12 "Hg10 mi
2:30 PM43 °FPassing clouds.8 mph31%30.12 "HgN/A
2:00 PM43 °FSunny.8 mph31%30.12 "Hg10 mi
1:30 PM43 °FPassing clouds.8 mph36%30.12 "HgN/A
1:00 PM41 °FSunny.8 mph36%30.12 "Hg10 mi
12:30 PM41 °FPassing clouds.6 mph45%30.12 "HgN/A
12:00 PM41 °FSunny.8 mph39%30.12 "Hg10 mi
11:30 AM41 °FSunny.10 mph45%30.12 "Hg10 mi
11:00 AM41 °FSunny.8 mph53%30.12 "Hg10 mi
10:30 AM39 °FSunny.8 mph61%30.12 "Hg10 mi
10:00 AM37 °FSunny.8 mph70%30.12 "Hg10 mi
Weather by CustomWeather, © 2014

See weather overview